Location: Bonn
(50.7330°N, 7.1000°E)
Time: 05:32:30
(UTC+02:00)

Cosmos 1933 Rocket - Visible Passes

Search period start: 01 August 2015 00:00
Search period end: 11 August 2015 00:00
Orbit: 608 x 630 km, 82.5° (Epoch: 30 July)

Date Brightness Start Highest point End Pass type
(mag) Time Alt. Az. Time Alt. Az. Time Alt. Az.
01 Aug 4.2 04:40:10 10° N 04:44:35 59° ENE 04:48:56 10° SSE visible
02 Aug 6.4 03:21:04 10° NNE 03:23:26 14° ENE 03:25:57 10° E visible
02 Aug 3.5 04:57:34 10° NNW 05:02:02 81° W 05:06:26 10° S visible
03 Aug 5.9 03:37:43 10° NNE 03:41:13 23° ENE 03:44:46 10° ESE visible
03 Aug 3.9 05:15:08 10° NNW 05:19:24 46° W 05:23:36 10° SSW visible
04 Aug 5.1 03:54:46 10° N 03:58:54 36° ENE 04:02:59 10° SE visible
05 Aug 4.0 04:12:01 10° N 04:16:27 62° ENE 04:20:49 10° SSE visible
06 Aug 6.3 02:52:50 10° NNE 02:55:20 15° ENE 02:57:58 10° E visible
06 Aug 3.5 04:29:27 10° NNW 04:33:54 77° W 04:38:16 10° S visible
07 Aug 5.7 03:09:33 10° NNE 03:13:06 24° ENE 03:16:42 10° ESE visible
07 Aug 4.0 04:47:01 10° NNW 04:51:15 44° W 04:55:24 10° SSW visible
08 Aug 4.9 03:26:37 10° N 03:30:46 38° ENE 03:34:53 10° SE visible
08 Aug 4.7 05:04:49 10° NNW 05:08:32 26° W 05:12:07 10° SW visible
09 Aug 3.9 03:43:54 10° N 03:48:19 65° ENE 03:51:48 16° SSE visible
09 Aug 5.3 05:23:01 10° NW 05:25:44 16° W 05:28:17 10° WSW visible
10 Aug 6.2 02:24:38 10° NNE 02:27:14 16° ENE 02:29:58 10° E visible
10 Aug 3.5 04:01:19 10° NNW 04:05:45 73° W 04:08:32 22° S visible
